Tucson Davis Monthan, AZ

12:38 PM MST on August 18, 2017 (GMT -0700)
Davis-Monthan Air Force Base

Weather History for KDMA - January, 2013

Change the Weather History Date:

Friday, January 4, 2013

  Actual Average Record
Temperature  
Mean Temperature 46 °F -  
Max Temperature 55 °F 62 °F 79 °F (1956)
Min Temperature 38 °F 37 °F 16 °F (1949)
Degree Days  
Heating Degree Days 18    
Moisture  
Dew Point 26 °F    
Average Humidity 48    
Maximum Humidity 62    
Minimum Humidity 30    
Precipitation  
Precipitation 0.00 in - - ()
Sea Level Pressure  
Sea Level Pressure 30.19 in    
Wind  
Wind Speed 9 mph (East)    
Max Wind Speed 15 mph    
Max Gust Speed -    
Visibility 10 miles    
Events      
Averages and records for this station are not official NWS values.
T = Trace of Precipitation, MM = Missing Value Source: NWS Daily Summary

Daily Weather History Graph

Daily Weather History Graph

Search for Another Location

Airport or City:

Trip Planner

Search our weather history database for the weather conditions in past years. The results will help you decide how hot, cold, wet, or windy it might be!

Date:

Astronomy

Jan. 04, 2013 Rise Set
Actual Time 7:25 AM MST 5:32 PM MST
Civil Twilight 6:58 AM MST 5:59 PM MST
Nautical Twilight 6:27 AM MST 6:29 PM MST
Astronomical Twilight 5:58 AM MST 6:59 PM MST
Moon No Moon Rise 11:36 AM MST (1/4)
Length of Visible Light 11h 01m
Length of Day
10h 07m
Waning Gibbous, 54% of the Moon is Illuminated
Jan 4
Waning Gibbous
Jan 4
Last Quarter
Jan 11
New
Jan 18
First Quarter
Jan 26
Full

Hourly Weather History & Observations

Time (MST) Temp. Windchill Dew Point Humidity Pressure Visibility Wind Dir Wind Speed Gust Speed Precip Events Conditions
12:58 AM 43.3 °F 38.6 °F 28.0 °F 55% 30.14 in 10.0 mi East 8.1 mph - N/A   Scattered Clouds
1:58 AM 42.6 °F 38.4 °F 28.2 °F 57% 30.14 in 10.0 mi East 6.9 mph - N/A   Partly Cloudy
2:58 AM 41.7 °F 37.3 °F 28.4 °F 59% 30.16 in 10.0 mi East 6.9 mph - N/A   Partly Cloudy
3:58 AM 41.0 °F 37.1 °F 28.6 °F 61% 30.17 in 10.0 mi ESE 5.8 mph - N/A   Scattered Clouds
4:58 AM 40.8 °F 33.7 °F 26.8 °F 57% 30.17 in 10.0 mi ESE 12.7 mph - N/A   Scattered Clouds
5:58 AM 39.6 °F 32.5 °F 26.4 °F 59% 30.19 in 10.0 mi ESE 11.5 mph - N/A   Clear
6:58 AM 38.3 °F 30.5 °F 26.1 °F 61% 30.21 in 10.0 mi East 12.7 mph - N/A   Clear
7:58 AM 38.1 °F 30.2 °F 26.1 °F 62% 30.23 in 10.0 mi ESE 12.7 mph - N/A   Clear
8:58 AM 41.5 °F 35.4 °F 25.7 °F 53% 30.24 in 10.0 mi ESE 10.4 mph - N/A   Clear
9:58 AM 45.9 °F 40.8 °F 25.7 °F 45% 30.24 in 10.0 mi East 10.4 mph - N/A   Clear
10:58 AM 48.4 °F - 25.3 °F 41% 30.23 in 10.0 mi ESE 15.0 mph - N/A   Clear
11:58 AM 50.2 °F - 26.1 °F 39% 30.21 in 10.0 mi SE 15.0 mph - N/A   Clear
12:58 PM 52.7 °F - 25.9 °F 35% 30.17 in 10.0 mi ESE 10.4 mph - N/A   Clear
1:58 PM 54.3 °F - 26.4 °F 34% 30.14 in 10.0 mi ESE 10.4 mph - N/A   Clear
2:58 PM 55.4 °F - 26.6 °F 33% 30.13 in 10.0 mi East 10.4 mph - N/A   Clear
3:58 PM 55.9 °F - 25.5 °F 31% 30.14 in 10.0 mi East 3.5 mph - N/A   Clear
4:58 PM 54.9 °F - 24.1 °F 30% 30.14 in 10.0 mi East 2.3 mph - N/A   Clear
5:58 PM 51.6 °F - 26.2 °F 37% 30.16 in 10.0 mi ENE 5.8 mph - N/A   Clear
6:58 PM 48.7 °F - 25.0 °F 40% 30.19 in 10.0 mi ENE 6.9 mph - N/A   Clear
7:58 PM 45.0 °F - 25.7 °F 47% 30.21 in 10.0 mi Calm Calm - N/A   Clear
8:58 PM 44.4 °F - 26.1 °F 49% 30.22 in 10.0 mi SE 2.3 mph - N/A   Clear
9:58 PM 41.5 °F 37.8 °F 26.2 °F 55% 30.23 in 10.0 mi ESE 5.8 mph - N/A   Clear
10:58 PM 42.4 °F 38.1 °F 27.1 °F 55% 30.23 in 10.0 mi East 6.9 mph - N/A   Clear
11:58 PM 42.8 °F 37.5 °F 26.8 °F 53% 30.22 in 10.0 mi East 9.2 mph - N/A   Clear